QPF
0.01 0.02 0.01 0.00 0.00 0.00 0.01 0.01 0.01 0.02 0.04 0.02 0.02 0.01 0.01 0.01 0.01 0.00 0.00 0.00 0.00 0.00 0.01 0.02 0.02 0.02 0.03 0.03 0.01 0.01 0.01 0.01 0.01 0.02 0.02 0.02 0.02 0.02 0.02 0.02 0.03 0.04 0.04 0.04
0.01 0.02 0.01 0.01 0.00 0.00 0.00 0.01 0.01 0.02 0.03 0.02 0.02 0.01 0.01 0.01 0.01 0.00 0.00 0.00 0.00 0.00 0.01 0.01 0.01 0.01 0.01 0.01 0.01 0.01 0.01 0.01 0.02 0.03 0.02 0.02 0.02 0.02 0.03 0.03 0.04 0.05 0.05 0.05
0.01 0.01 0.02 0.01 0.00 0.00 0.00 0.00 0.01 0.02 0.03 0.02 0.02 0.01 0.01 0.01 0.00 0.00 0.01 0.01 0.01 0.01 0.01 0.01 0.01 0.00 0.00 0.01 0.01 0.02 0.02 0.02 0.03 0.03 0.04 0.04 0.03 0.03 0.02 0.02 0.02 0.03 0.03 0.04
0.01 0.01 0.01 0.01 0.00 0.00 0.00 0.00 0.00 0.01 0.01 0.01 0.02 0.03 0.03 0.03 0.01 0.01 0.01 0.01 0.01 0.01 0.01 0.02 0.02 0.01 0.01 0.02 0.02 0.03 0.02 0.02 0.04 0.04 0.04 0.04 0.03 0.03 0.03 0.03 0.03 0.03 0.04 0.04
0.00 0.01 0.01 0.01 0.01 0.00 0.00 0.00 0.00 0.00 0.00 0.00 0.01 0.03 0.05 0.02 0.01 0.01 0.01 0.01 0.01 0.01 0.03 0.02 0.02 0.01 0.01 0.02 0.03 0.03 0.03 0.04 0.04 0.04 0.03 0.03 0.03 0.03 0.03 0.03 0.04 0.04 0.04 0.04
0.00 0.01 0.02 0.01 0.02 0.01 0.01 0.01 0.00 0.00 0.01 0.00 0.01 0.01 0.02 0.03 0.04 0.03 0.01 0.01 0.02 0.03 0.03 0.02 0.01 0.01 0.02 0.02 0.03 0.03 0.02 0.03 0.03 0.03 0.03 0.03 0.03 0.03 0.03 0.04 0.04 0.05 0.04 0.04
0.00 0.01 0.02 0.02 0.01 0.01 0.01 0.02 0.00 0.01 0.01 0.00 0.00 0.00 0.01 0.03 0.04 0.03 0.02 0.01 0.02 0.01 0.01 0.01 0.02 0.02 0.03 0.04 0.04 0.04 0.04 0.04 0.04 0.04 0.04 0.03 0.04 0.03 0.03 0.04 0.04 0.05 0.05 0.04
0.00 0.01 0.02 0.01 0.01 0.02 0.02 0.01 0.00 0.00 0.00 0.00 0.00 0.01 0.02 0.03 0.02 0.01 0.02 0.02 0.01 0.01 0.02 0.02 0.03 0.04 0.05 0.04 0.04 0.04 0.04 0.04 0.04 0.04 0.04 0.04 0.04 0.04 0.04 0.04 0.04 0.05 0.05 0.04
0.00 0.01 0.01 0.01 0.01 0.01 0.00 0.00 0.00 0.00 0.01 0.00 0.00 0.01 0.01 0.01 0.02 0.01 0.01 0.01 0.01 0.01 0.01 0.02 0.03 0.04 0.05 0.04 0.04 0.05 0.04 0.04 0.04 0.04 0.05 0.05 0.04 0.03 0.04 0.04 0.04 0.05 0.06 0.07
0.00 0.00 0.00 0.01 0.01 0.00 0.00 0.00 0.00 0.00 0.01 0.01 0.01 0.01 0.01 0.01 0.01 0.02 0.02 0.02 0.01 0.01 0.02 0.03 0.04 0.04 0.04 0.05 0.06 0.06 0.04 0.04 0.04 0.03 0.04 0.05 0.05 0.03 0.03 0.03 0.03 0.03 0.03 0.04
0.01 0.02 0.02 0.01 0.01 0.00 0.00 0.00 0.00 0.01 0.01 0.01 0.01 0.01 0.01 0.01 0.02 0.02 0.03 0.02 0.01 0.01 0.01 0.02 0.03 0.04 0.04 0.05 0.05 0.06 0.05 0.04 0.04 0.04 0.04 0.05 0.04 0.03 0.03 0.02 0.02 0.02 0.02 0.01
0.02 0.03 0.02 0.02 0.02 0.03 0.02 0.00 0.01 0.01 0.01 0.02 0.01 0.01 0.02 0.02 0.02 0.01 0.01 0.02 0.02 0.01 0.01 0.01 0.04 0.06 0.04 0.05 0.05 0.06 0.05 0.05 0.04 0.03 0.03 0.03 0.04 0.04 0.05 0.05 0.04 0.03 0.03 0.01
0.01 0.02 0.02 0.01 0.01 0.03 0.02 0.01 0.01 0.01 0.01 0.01 0.01 0.02 0.03 0.02 0.01 0.01 0.01 0.02 0.01 0.01 0.01 0.02 0.05 0.09 0.06 0.06 0.08 0.08 0.07 0.05 0.03 0.03 0.03 0.04 0.04 0.04 0.04 0.04 0.04 0.04 0.03 0.02
0.00 0.01 0.01 0.01 0.01 0.01 0.00 0.00 0.01 0.01 0.01 0.01 0.02 0.02 0.02 0.02 0.02 0.01 0.01 0.02 0.02 0.02 0.02 0.02 0.04 0.08 0.10 0.07 0.08 0.08 0.06 0.04 0.03 0.02 0.02 0.02 0.02 0.02 0.02 0.03 0.03 0.02 0.03 0.03
0.00 0.01 0.01 0.01 0.01 0.00 0.00 0.01 0.01 0.01 0.02 0.02 0.02 0.02 0.03 0.04 0.04 0.02 0.02 0.02 0.03 0.03 0.03 0.03 0.04 0.07 0.11 0.10 0.08 0.06 0.04 0.03 0.02 0.01 0.01 0.01 0.02 0.02 0.02 0.03 0.03 0.03 0.02 0.03
0.00 0.00 0.00 0.01 0.01 0.00 0.01 0.02 0.03 0.04 0.04 0.04 0.04 0.05 0.05 0.05 0.06 0.05 0.03 0.05 0.06 0.05 0.03 0.03 0.03 0.04 0.07 0.09 0.08 0.06 0.04 0.03 0.02 0.02 0.01 0.01 0.02 0.04 0.06 0.06 0.06 0.06 0.06 0.05
0.00 0.00 0.00 0.00 0.00 0.00 0.00 0.01 0.04 0.07 0.09 0.07 0.07 0.08 0.08 0.06 0.05 0.04 0.04 0.05 0.06 0.05 0.03 0.03 0.03 0.03 0.05 0.07 0.07 0.06 0.05 0.03 0.03 0.02 0.02 0.02 0.02 0.03 0.04 0.05 0.06 0.06 0.06 0.06
0.00 0.00 0.00 0.00 0.00 0.00 0.01 0.01 0.02 0.03 0.07 0.06 0.05 0.05 0.05 0.05 0.05 0.05 0.04 0.03 0.03 0.03 0.03 0.03 0.03 0.03 0.04 0.04 0.05 0.05 0.03 0.02 0.02 0.02 0.02 0.02 0.02 0.02 0.02 0.03 0.03 0.04 0.05 0.04
0.01 0.00 0.00 0.00 0.01 0.01 0.01 0.02 0.02 0.02 0.02 0.03 0.02 0.01 0.02 0.03 0.03 0.04 0.04 0.04 0.03 0.02 0.02 0.02 0.03 0.03 0.03 0.03 0.04 0.04 0.02 0.01 0.01 0.01 0.01 0.01 0.01 0.01 0.01 0.01 0.01 0.02 0.02 0.03
0.02 0.01 0.01 0.01 0.01 0.01 0.02 0.02 0.02 0.01 0.01 0.02 0.03 0.02 0.02 0.02 0.02 0.03 0.03 0.04 0.03 0.02 0.02 0.03 0.04 0.04 0.04 0.03 0.03 0.03 0.01 0.01 0.01 0.01 0.01 0.01 0.01 0.01 0.00 0.00 0.01 0.01 0.02 0.03
0.03 0.02 0.02 0.01 0.01 0.01 0.02 0.02 0.02 0.02 0.02 0.02 0.03 0.03 0.03 0.02 0.02 0.02 0.03 0.03 0.03 0.03 0.04 0.05 0.05 0.04 0.04 0.03 0.02 0.02 0.01 0.01 0.01 0.01 0.02 0.02 0.01 0.01 0.00 0.01 0.01 0.02 0.02 0.02
0.02 0.02 0.03 0.03 0.03 0.02 0.02 0.02 0.02 0.02 0.02 0.02 0.02 0.02 0.03 0.03 0.03 0.03 0.04 0.04 0.04 0.06 0.05 0.05 0.04 0.03 0.02 0.02 0.02 0.01 0.01 0.01 0.01 0.01 0.01 0.01 0.01 0.01 0.01 0.01 0.01 0.01 0.01 0.01
0.03 0.02 0.03 0.04 0.06 0.03 0.02 0.02 0.02 0.02 0.02 0.02 0.02 0.02 0.02 0.03 0.03 0.05 0.06 0.06 0.06 0.06 0.04 0.03 0.02 0.02 0.01 0.01 0.01 0.01 0.01 0.01 0.01 0.01 0.01 0.01 0.01 0.01 0.01 0.01 0.01 0.01 0.01 0.01
0.02 0.03 0.03 0.02 0.02 0.02 0.03 0.03 0.03 0.03 0.02 0.02 0.03 0.02 0.03 0.03 0.04 0.05 0.05 0.09 0.09 0.07 0.04 0.03 0.03 0.03 0.02 0.02 0.01 0.01 0.02 0.02 0.01 0.01 0.01 0.01 0.01 0.01 0.01 0.01 0.01 0.01 0.01 0.02
0.02 0.03 0.03 0.02 0.02 0.03 0.03 0.06 0.06 0.03 0.02 0.03 0.04 0.04 0.04 0.04 0.05 0.06 0.08 0.10 0.08 0.05 0.04 0.03 0.03 0.02 0.02 0.02 0.02 0.02 0.02 0.02 0.02 0.02 0.02 0.02 0.01 0.01 0.01 0.02 0.02 0.03 0.03 0.03
0.03 0.04 0.03 0.03 0.03 0.03 0.04 0.05 0.06 0.04 0.04 0.04 0.05 0.05 0.04 0.06 0.09 0.07 0.08 0.11 0.09 0.06 0.04 0.04 0.03 0.02 0.02 0.02 0.02 0.02 0.02 0.01 0.01 0.01 0.01 0.01 0.01 0.01 0.02 0.03 0.04 0.05 0.05 0.04
0.04 0.04 0.04 0.04 0.04 0.04 0.05 0.06 0.05 0.05 0.04 0.04 0.04 0.04 0.03 0.04 0.08 0.07 0.08 0.08 0.06 0.04 0.04 0.03 0.03 0.02 0.01 0.01 0.02 0.03 0.03 0.03 0.02 0.02 0.01 0.01 0.01 0.02 0.02 0.02 0.03 0.03 0.03 0.03
MSLP
1008.44 1008.17 1007.94 1007.81 1007.82 1007.97 1008.22 1008.54 1008.88 1009.19 1009.43 1009.59 1009.65 1009.65 1009.61 1009.56 1009.53 1009.53 1009.57 1009.65 1009.75 1009.87 1009.99 1010.11 1010.24 1010.37 1010.52 1010.67 1010.83 1010.99 1011.11 1011.19 1011.20 1011.13 1010.98 1010.75 1010.46 1010.13 1009.79 1009.45 1009.13 1008.83 1008.56 1008.30
1008.91 1008.67 1008.44 1008.27 1008.21 1008.27 1008.45 1008.73 1009.06 1009.42 1009.76 1010.06 1010.30 1010.47 1010.58 1010.63 1010.65 1010.65 1010.63 1010.62 1010.61 1010.63 1010.67 1010.75 1010.86 1011.00 1011.17 1011.36 1011.53 1011.67 1011.75 1011.75 1011.67 1011.48 1011.21 1010.88 1010.51 1010.12 1009.75 1009.41 1009.10 1008.82 1008.57 1008.33
1009.48 1009.29 1009.09 1008.92 1008.83 1008.85 1008.98 1009.21 1009.54 1009.93 1010.34 1010.73 1011.07 1011.35 1011.54 1011.64 1011.66 1011.62 1011.53 1011.43 1011.34 1011.27 1011.26 1011.31 1011.43 1011.60 1011.81 1012.03 1012.22 1012.35 1012.39 1012.31 1012.13 1011.83 1011.44 1011.00 1010.55 1010.11 1009.71 1009.38 1009.11 1008.89 1008.69 1008.51
1010.17 1010.03 1009.86 1009.70 1009.60 1009.58 1009.67 1009.88 1010.19 1010.57 1010.99 1011.42 1011.81 1012.12 1012.34 1012.45 1012.45 1012.36 1012.21 1012.03 1011.86 1011.74 1011.69 1011.74 1011.87 1012.09 1012.34 1012.60 1012.81 1012.93 1012.94 1012.80 1012.53 1012.13 1011.64 1011.11 1010.60 1010.13 1009.73 1009.43 1009.22 1009.07 1008.97 1008.87
1010.96 1010.85 1010.70 1010.54 1010.41 1010.35 1010.39 1010.55 1010.81 1011.15 1011.56 1011.98 1012.37 1012.69 1012.90 1012.99 1012.97 1012.84 1012.64 1012.41 1012.19 1012.05 1011.99 1012.04 1012.20 1012.45 1012.74 1013.03 1013.26 1013.38 1013.35 1013.17 1012.83 1012.37 1011.81 1011.23 1010.68 1010.20 1009.83 1009.59 1009.45 1009.40 1009.41 1009.42
1011.77 1011.66 1011.50 1011.32 1011.15 1011.04 1011.02 1011.10 1011.29 1011.58 1011.94 1012.32 1012.69 1012.99 1013.20 1013.28 1013.25 1013.11 1012.89 1012.65 1012.43 1012.27 1012.21 1012.27 1012.45 1012.72 1013.03 1013.33 1013.56 1013.67 1013.63 1013.41 1013.04 1012.53 1011.95 1011.36 1010.81 1010.35 1010.03 1009.84 1009.79 1009.84 1009.95 1010.07
1012.51 1012.39 1012.19 1011.97 1011.75 1011.57 1011.47 1011.48 1011.59 1011.81 1012.11 1012.45 1012.79 1013.08 1013.29 1013.39 1013.37 1013.26 1013.07 1012.85 1012.65 1012.51 1012.47 1012.53 1012.71 1012.97 1013.26 1013.54 1013.75 1013.84 1013.77 1013.54 1013.15 1012.64 1012.07 1011.49 1010.97 1010.56 1010.29 1010.17 1010.20 1010.33 1010.53 1010.73
1013.13 1012.96 1012.73 1012.46 1012.18 1011.93 1011.76 1011.69 1011.73 1011.89 1012.13 1012.43 1012.75 1013.04 1013.27 1013.41 1013.45 1013.40 1013.27 1013.11 1012.95 1012.85 1012.81 1012.88 1013.03 1013.25 1013.50 1013.73 1013.89 1013.93 1013.83 1013.58 1013.19 1012.70 1012.17 1011.63 1011.17 1010.81 1010.61 1010.55 1010.63 1010.82 1011.07 1011.31
1013.56 1013.37 1013.09 1012.78 1012.46 1012.17 1011.95 1011.82 1011.81 1011.91 1012.10 1012.38 1012.69 1012.99 1013.26 1013.46 1013.57 1013.60 1013.57 1013.48 1013.39 1013.32 1013.30 1013.35 1013.45 1013.61 1013.78 1013.92 1014.00 1013.98 1013.84 1013.57 1013.20 1012.75 1012.26 1011.79 1011.39 1011.11 1010.95 1010.94 1011.05 1011.26 1011.51 1011.76
1013.80 1013.59 1013.30 1012.98 1012.65 1012.35 1012.11 1011.95 1011.91 1011.98 1012.15 1012.41 1012.71 1013.03 1013.34 1013.60 1013.79 1013.91 1013.96 1013.96 1013.93 1013.90 1013.89 1013.91 1013.95 1014.03 1014.09 1014.14 1014.12 1014.03 1013.84 1013.55 1013.19 1012.78 1012.36 1011.97 1011.64 1011.42 1011.31 1011.33 1011.45 1011.63 1011.86 1012.06
1013.87 1013.66 1013.39 1013.09 1012.79 1012.52 1012.30 1012.17 1012.12 1012.18 1012.34 1012.57 1012.87 1013.21 1013.53 1013.83 1014.09 1014.28 1014.41 1014.49 1014.52 1014.52 1014.51 1014.49 1014.48 1014.45 1014.42 1014.35 1014.23 1014.06 1013.83 1013.53 1013.19 1012.83 1012.47 1012.16 1011.91 1011.75 1011.69 1011.71 1011.82 1011.96 1012.12 1012.25
1013.81 1013.63 1013.41 1013.17 1012.94 1012.74 1012.58 1012.49 1012.47 1012.54 1012.69 1012.91 1013.19 1013.50 1013.82 1014.14 1014.42 1014.66 1014.84 1014.97 1015.04 1015.07 1015.05 1015.01 1014.93 1014.83 1014.70 1014.53 1014.33 1014.09 1013.81 1013.51 1013.20 1012.89 1012.61 1012.37 1012.21 1012.10 1012.07 1012.11 1012.18 1012.27 1012.36 1012.40
1013.70 1013.55 1013.39 1013.24 1013.11 1013.00 1012.93 1012.91 1012.94 1013.02 1013.16 1013.35 1013.59 1013.86 1014.15 1014.44 1014.71 1014.96 1015.17 1015.32 1015.42 1015.47 1015.45 1015.39 1015.27 1015.11 1014.90 1014.66 1014.39 1014.10 1013.80 1013.50 1013.22 1012.97 1012.76 1012.60 1012.50 1012.46 1012.46 1012.50 1012.55 1012.60 1012.61 1012.57
1013.59 1013.47 1013.39 1013.33 1013.30 1013.31 1013.33 1013.39 1013.46 1013.56 1013.69 1013.84 1014.02 1014.22 1014.45 1014.68 1014.91 1015.14 1015.34 1015.51 1015.62 1015.68 1015.67 1015.60 1015.47 1015.27 1015.03 1014.74 1014.43 1014.11 1013.81 1013.52 1013.27 1013.07 1012.92 1012.83 1012.80 1012.81 1012.84 1012.89 1012.93 1012.94 1012.89 1012.79
1013.52 1013.44 1013.42 1013.45 1013.52 1013.63 1013.75 1013.88 1014.00 1014.11 1014.22 1014.32 1014.43 1014.55 1014.69 1014.85 1015.02 1015.20 1015.38 1015.54 1015.67 1015.74 1015.75 1015.69 1015.56 1015.36 1015.11 1014.81 1014.49 1014.16 1013.85 1013.58 1013.36 1013.19 1013.10 1013.06 1013.07 1013.12 1013.18 1013.24 1013.27 1013.26 1013.19 1013.05
1013.55 1013.49 1013.51 1013.61 1013.77 1013.96 1014.16 1014.35 1014.51 1014.63 1014.71 1014.77 1014.81 1014.84 1014.89 1014.97 1015.07 1015.21 1015.35 1015.51 1015.63 1015.73 1015.77 1015.73 1015.63 1015.45 1015.21 1014.92 1014.60 1014.28 1013.97 1013.71 1013.50 1013.36 1013.29 1013.27 1013.31 1013.37 1013.44 1013.50 1013.53 1013.51 1013.42 1013.27
1013.67 1013.62 1013.67 1013.83 1014.05 1014.31 1014.57 1014.80 1014.99 1015.11 1015.17 1015.18 1015.16 1015.12 1015.10 1015.10 1015.14 1015.23 1015.35 1015.50 1015.64 1015.76 1015.83 1015.84 1015.77 1015.62 1015.41 1015.13 1014.82 1014.51 1014.19 1013.93 1013.71 1013.56 1013.47 1013.45 1013.47 1013.53 1013.59 1013.64 1013.66 1013.63 1013.53 1013.37
1013.90 1013.85 1013.93 1014.13 1014.39 1014.69 1014.99 1015.25 1015.45 1015.58 1015.62 1015.59 1015.53 1015.43 1015.35 1015.30 1015.30 1015.36 1015.47 1015.61 1015.76 1015.91 1016.01 1016.06 1016.03 1015.92 1015.73 1015.48 1015.17 1014.85 1014.53 1014.23 1013.99 1013.79 1013.67 1013.60 1013.58 1013.59 1013.61 1013.63 1013.62 1013.57 1013.47 1013.31
1014.21 1014.18 1014.29 1014.50 1014.79 1015.12 1015.45 1015.73 1015.93 1016.05 1016.08 1016.03 1015.93 1015.81 1015.70 1015.62 1015.59 1015.63 1015.73 1015.87 1016.05 1016.21 1016.35 1016.43 1016.43 1016.35 1016.18 1015.93 1015.63 1015.29 1014.94 1014.61 1014.30 1014.05 1013.85 1013.71 1013.62 1013.56 1013.51 1013.47 1013.42 1013.33 1013.21 1013.04
1014.57 1014.57 1014.70 1014.94 1015.25 1015.59 1015.93 1016.21 1016.41 1016.53 1016.55 1016.50 1016.38 1016.25 1016.12 1016.03 1015.99 1016.03 1016.13 1016.27 1016.45 1016.63 1016.79 1016.89 1016.91 1016.84 1016.68 1016.44 1016.13 1015.77 1015.38 1015.00 1014.63 1014.31 1014.03 1013.80 1013.61 1013.46 1013.33 1013.22 1013.10 1012.96 1012.80 1012.61
1014.92 1014.97 1015.14 1015.40 1015.73 1016.08 1016.41 1016.68 1016.88 1016.99 1017.00 1016.94 1016.83 1016.69 1016.56 1016.47 1016.44 1016.47 1016.56 1016.71 1016.89 1017.07 1017.23 1017.33 1017.36 1017.30 1017.14 1016.90 1016.58 1016.20 1015.78 1015.36 1014.94 1014.55 1014.19 1013.87 1013.59 1013.35 1013.14 1012.94 1012.75 1012.55 1012.34 1012.12
1015.23 1015.34 1015.55 1015.83 1016.17 1016.51 1016.83 1017.09 1017.27 1017.37 1017.37 1017.31 1017.20 1017.07 1016.95 1016.86 1016.82 1016.85 1016.94 1017.08 1017.25 1017.42 1017.57 1017.66 1017.68 1017.62 1017.47 1017.22 1016.90 1016.52 1016.09 1015.65 1015.20 1014.76 1014.35 1013.96 1013.61 1013.29 1013.00 1012.73 1012.46 1012.21 1011.94 1011.67
1015.46 1015.63 1015.87 1016.17 1016.51 1016.84 1017.13 1017.37 1017.53 1017.61 1017.60 1017.53 1017.42 1017.30 1017.18 1017.10 1017.07 1017.09 1017.17 1017.29 1017.43 1017.58 1017.71 1017.79 1017.80 1017.74 1017.59 1017.36 1017.05 1016.69 1016.28 1015.85 1015.40 1014.95 1014.52 1014.11 1013.71 1013.34 1012.99 1012.66 1012.33 1012.02 1011.71 1011.39
1015.58 1015.79 1016.06 1016.37 1016.69 1017.00 1017.27 1017.47 1017.60 1017.65 1017.63 1017.56 1017.46 1017.34 1017.23 1017.15 1017.12 1017.13 1017.19 1017.29 1017.41 1017.53 1017.63 1017.69 1017.70 1017.63 1017.51 1017.30 1017.03 1016.71 1016.35 1015.96 1015.55 1015.14 1014.73 1014.33 1013.93 1013.54 1013.16 1012.79 1012.42 1012.05 1011.69 1011.33
1015.59 1015.83 1016.11 1016.40 1016.70 1016.97 1017.19 1017.36 1017.46 1017.49 1017.47 1017.40 1017.30 1017.19 1017.09 1017.02 1016.99 1017.00 1017.04 1017.11 1017.21 1017.29 1017.37 1017.41 1017.41 1017.37 1017.26 1017.10 1016.89 1016.64 1016.35 1016.04 1015.71 1015.36 1015.01 1014.64 1014.27 1013.89 1013.51 1013.13 1012.73 1012.33 1011.92 1011.51
1015.49 1015.73 1015.99 1016.27 1016.53 1016.76 1016.94 1017.08 1017.15 1017.17 1017.14 1017.08 1017.00 1016.91 1016.83 1016.78 1016.75 1016.76 1016.79 1016.84 1016.91 1016.97 1017.03 1017.06 1017.06 1017.02 1016.95 1016.84 1016.70 1016.53 1016.34 1016.12 1015.89 1015.63 1015.35 1015.05 1014.74 1014.39 1014.03 1013.64 1013.23 1012.80 1012.35 1011.89
1015.30 1015.53 1015.76 1016.00 1016.22 1016.41 1016.56 1016.66 1016.73 1016.75 1016.73 1016.69 1016.64 1016.59 1016.55 1016.52 1016.51 1016.52 1016.55 1016.59 1016.63 1016.67 1016.71 1016.73 1016.73 1016.71 1016.68 1016.62 1016.55 1016.47 1016.37 1016.25 1016.11 1015.96 1015.76 1015.54 1015.28 1014.98 1014.63 1014.25 1013.83 1013.37 1012.89 1012.39
Thickness
5823 5829 5830 5828 5828 5833 5827 5822 5811 5808 5805 5810 5813 5815 5815 5813 5809 5807 5801 5798 5795 5790 5786 5782 5778 5774 5771 5767 5765 5762 5757 5753 5749 5746 5743 5740 5736 5734 5731 5728 5725 5722 5719 5715
5808 5819 5825 5824 5829 5831 5831 5828 5817 5813 5806 5819 5822 5817 5809 5806 5801 5796 5793 5792 5789 5785 5780 5775 5771 5767 5764 5761 5759 5755 5749 5746 5743 5740 5736 5733 5730 5727 5724 5721 5718 5715 5712 5709
5791 5810 5813 5806 5824 5828 5825 5827 5821 5807 5804 5812 5807 5804 5802 5799 5797 5792 5788 5786 5782 5778 5773 5769 5766 5762 5757 5756 5753 5748 5743 5739 5736 5733 5729 5726 5723 5719 5716 5713 5710 5707 5705 5703
5788 5788 5770 5804 5834 5834 5825 5822 5826 5820 5817 5815 5806 5804 5803 5798 5791 5787 5785 5780 5777 5774 5770 5766 5762 5758 5753 5751 5746 5741 5736 5731 5728 5725 5721 5719 5715 5711 5709 5706 5703 5700 5698 5696
5779 5773 5781 5801 5819 5822 5813 5804 5816 5812 5810 5810 5807 5799 5791 5793 5789 5784 5781 5777 5773 5770 5766 5761 5756 5752 5747 5743 5739 5734 5729 5725 5722 5719 5715 5711 5708 5705 5703 5700 5697 5694 5692 5689
5775 5763 5759 5784 5810 5822 5810 5786 5805 5804 5799 5799 5796 5776 5772 5782 5780 5777 5775 5771 5767 5764 5760 5754 5750 5747 5739 5735 5731 5727 5723 5720 5716 5713 5709 5705 5701 5698 5696 5693 5691 5688 5686 5683
5767 5762 5771 5793 5806 5805 5771 5768 5794 5796 5793 5790 5781 5776 5776 5777 5772 5768 5766 5762 5760 5756 5751 5747 5744 5739 5732 5727 5724 5721 5718 5714 5710 5706 5703 5699 5696 5692 5690 5687 5684 5682 5679 5676
5762 5750 5754 5785 5790 5774 5767 5785 5788 5786 5785 5781 5777 5775 5772 5768 5764 5761 5757 5754 5750 5747 5743 5741 5738 5731 5725 5720 5719 5716 5712 5708 5705 5701 5698 5695 5690 5686 5684 5680 5677 5675 5672 5670
5760 5754 5767 5775 5774 5776 5781 5776 5776 5776 5775 5773 5768 5764 5761 5757 5754 5751 5749 5746 5743 5739 5735 5732 5729 5724 5717 5715 5713 5710 5706 5702 5699 5696 5693 5689 5684 5681 5677 5674 5671 5669 5666 5662
5754 5758 5765 5769 5769 5771 5773 5770 5771 5770 5767 5764 5758 5755 5751 5748 5745 5742 5740 5737 5735 5731 5726 5723 5721 5718 5713 5711 5708 5703 5699 5696 5692 5690 5687 5683 5680 5677 5672 5668 5665 5663 5660 5657
5742 5748 5751 5756 5759 5761 5763 5764 5762 5761 5758 5755 5750 5746 5743 5739 5737 5734 5731 5729 5727 5723 5719 5716 5714 5710 5708 5705 5701 5696 5693 5689 5687 5685 5682 5678 5674 5670 5667 5663 5660 5657 5654 5651
5729 5738 5735 5738 5750 5754 5751 5750 5750 5748 5745 5745 5742 5737 5735 5732 5730 5727 5724 5723 5720 5716 5713 5710 5707 5703 5701 5699 5696 5691 5686 5684 5682 5680 5677 5674 5670 5664 5660 5657 5654 5651 5648 5644
5729 5736 5737 5738 5741 5744 5740 5740 5741 5739 5736 5734 5733 5731 5728 5724 5722 5720 5717 5715 5712 5709 5707 5704 5701 5697 5695 5693 5689 5685 5681 5679 5677 5675 5672 5670 5666 5661 5655 5650 5647 5644 5641 5637
5722 5725 5722 5725 5728 5732 5732 5732 5732 5729 5727 5726 5724 5722 5719 5715 5712 5710 5708 5706 5705 5703 5700 5697 5693 5689 5687 5685 5682 5679 5676 5674 5671 5669 5667 5664 5661 5658 5654 5649 5644 5641 5636 5631
5713 5716 5716 5718 5719 5721 5722 5721 5718 5716 5716 5714 5714 5711 5709 5705 5702 5700 5699 5699 5697 5694 5691 5688 5684 5681 5679 5678 5675 5672 5670 5668 5665 5663 5661 5659 5657 5654 5651 5647 5643 5638 5634 5628
5702 5705 5706 5705 5705 5707 5709 5708 5705 5704 5704 5703 5702 5700 5699 5697 5694 5691 5691 5690 5686 5683 5681 5679 5676 5675 5673 5671 5668 5666 5663 5661 5658 5657 5656 5655 5653 5650 5647 5643 5640 5636 5632 5627
5688 5688 5690 5692 5695 5696 5697 5698 5696 5696 5695 5693 5691 5692 5690 5687 5685 5682 5682 5682 5679 5676 5675 5673 5671 5669 5667 5665 5662 5659 5657 5655 5653 5652 5650 5649 5647 5644 5641 5638 5636 5632 5629 5624
5684 5685 5685 5685 5686 5686 5687 5689 5690 5688 5686 5685 5685 5683 5680 5677 5675 5674 5673 5673 5671 5670 5669 5668 5666 5663 5661 5659 5657 5655 5653 5651 5649 5647 5645 5643 5642 5640 5638 5635 5631 5628 5624 5620
5677 5677 5678 5678 5679 5679 5679 5680 5680 5681 5679 5677 5676 5673 5672 5671 5670 5669 5668 5665 5664 5662 5663 5664 5659 5658 5656 5655 5652 5650 5648 5648 5646 5644 5642 5638 5636 5636 5634 5631 5628 5625 5621 5617
5667 5669 5669 5670 5671 5671 5670 5671 5672 5672 5671 5670 5668 5666 5665 5664 5665 5664 5663 5660 5660 5660 5659 5657 5655 5653 5652 5650 5646 5646 5645 5644 5642 5640 5638 5636 5633 5631 5629 5627 5624 5621 5618 5614
5657 5659 5659 5659 5660 5662 5663 5663 5663 5663 5663 5663 5660 5658 5658 5659 5660 5659 5656 5654 5656 5655 5653 5650 5650 5649 5648 5644 5640 5642 5641 5640 5638 5636 5634 5632 5630 5627 5625 5622 5620 5617 5614 5610
5650 5651 5651 5651 5651 5652 5655 5657 5657 5656 5656 5655 5655 5654 5653 5652 5654 5654 5653 5651 5652 5649 5648 5647 5646 5643 5641 5637 5638 5638 5637 5635 5634 5632 5630 5628 5625 5623 5620 5617 5615 5612 5609 5606
5642 5643 5644 5644 5644 5645 5647 5648 5649 5649 5649 5649 5649 5649 5649 5649 5650 5649 5646 5648 5648 5643 5643 5642 5638 5635 5632 5633 5634 5633 5632 5631 5629 5628 5625 5623 5621 5619 5615 5613 5610 5608 5604 5600
5635 5636 5638 5639 5639 5638 5637 5640 5642 5643 5644 5645 5646 5646 5646 5646 5646 5647 5646 5642 5640 5638 5638 5634 5631 5629 5626 5629 5629 5628 5626 5625 5624 5623 5621 5619 5616 5613 5610 5607 5604 5602 5598 5594
5629 5630 5632 5632 5632 5633 5633 5635 5637 5637 5638 5639 5641 5642 5643 5643 5642 5641 5640 5638 5634 5632 5631 5629 5625 5623 5624 5625 5624 5623 5621 5620 5618 5617 5615 5613 5611 5608 5604 5601 5598 5594 5590 5587
5624 5626 5628 5628 5629 5630 5631 5632 5632 5633 5633 5633 5635 5637 5637 5637 5636 5635 5634 5632 5631 5627 5626 5624 5623 5620 5621 5620 5619 5618 5616 5613 5612 5610 5608 5606 5603 5600 5597 5593 5590 5586 5583 5579
5622 5624 5624 5625 5626 5628 5629 5629 5628 5628 5629 5629 5628 5629 5630 5630 5629 5629 5628 5627 5625 5623 5621 5620 5618 5617 5616 5614 5613 5611 5609 5606 5603 5601 5599 5596 5594 5591 5587 5584 5580 5577 5574 5571